Weather History for Orange City, IA

Change the Weather History Date:

Sunday, October 14, 2012

  Actual Average Record
Temperature  
Mean Temperature 52 °F -  
Max Temperature 62 °F 64 °F 136 °F (1997)
Min Temperature 42 °F 41 °F 23 °F (2006)
Degree Days  
Heating Degree Days 13    
Growing Degree Days 2 (Base 50)    
Moisture  
Dew Point 36 °F    
Average Humidity 59    
Maximum Humidity 93    
Minimum Humidity 30    
Precipitation  
Precipitation 0.00 in - - ()
Sea Level Pressure  
Sea Level Pressure 29.85 in    
Wind  
Wind Speed 11 mph (NNW)    
Max Wind Speed 21 mph    
Max Gust Speed 28 mph    
Visibility 9 miles    
Events      
Averages and records for this station are not official NWS values.
T = Trace of Precipitation, MM = Missing Value Source: NWS Daily Summary

Daily Weather History Graph

Daily Weather History Graph

Search for Another Location

Airport:

Trip Planner

Search our weather history database for the weather conditions in past years. The results will help you decide how hot, cold, wet, or windy it might be!

Date:

Astronomy

Oct. 14, 2012 Rise Set
Actual Time 7:37 AM CDT 6:42 PM CDT
Civil Twilight 7:08 AM CDT 7:10 PM CDT
Nautical Twilight 6:35 AM CDT 7:43 PM CDT
Astronomical Twilight 6:02 AM CDT 8:16 PM CDT
Moon 6:37 AM CDT (10/14) 6:02 PM CDT (10/14)
Length of Visible Light 12h 02m
Length of Day
11h 05m
Waning Crescent, 1% of the Moon is Illuminated
Oct 14
Waning Crescent
Oct 15
New
Oct 21
First Quarter
Oct 29
Full
Nov 6
Last Quarter

Hourly Weather History & Observations

Time (CDT) Temp. Windchill Dew Point Humidity Pressure Visibility Wind Dir Wind Speed Gust Speed Precip Events Conditions
12:15 AM 53.6 °F - 46.4 °F 77% 29.68 in 10.0 mi NNE 10.4 mph - N/A   Clear
12:35 AM 53.6 °F - 46.4 °F 77% 29.70 in 10.0 mi North 11.5 mph - N/A   Clear
12:55 AM 53.6 °F - 46.4 °F 77% 29.70 in 10.0 mi NNE 9.2 mph - N/A   Clear
1:15 AM 53.6 °F - 48.2 °F 82% 29.71 in 7.0 mi NNE 10.4 mph 16.1 mph N/A   Clear
1:35 AM 53.6 °F - 48.2 °F 82% 29.71 in 7.0 mi NNE 9.2 mph - N/A   Clear
1:55 AM 51.8 °F - 48.2 °F 88% 29.71 in 7.0 mi North 8.1 mph - N/A   Clear
2:35 AM 51.8 °F - 46.4 °F 82% 29.72 in 7.0 mi North 10.4 mph - N/A   Clear
2:55 AM 50.0 °F - 46.4 °F 87% 29.73 in 7.0 mi North 10.4 mph - N/A   Clear
3:15 AM 48.2 °F - 46.4 °F 93% 29.73 in 7.0 mi North 10.4 mph - N/A   Clear
3:35 AM 48.2 °F - 46.4 °F 93% 29.74 in 5.0 mi North 9.2 mph - N/A   Clear
3:55 AM 48.2 °F - 44.6 °F 87% 29.74 in 5.0 mi North 10.4 mph - N/A   Clear
4:15 AM 46.4 °F 41.9 °F 44.6 °F 93% 29.75 in 5.0 mi North 9.2 mph - N/A   Scattered Clouds
4:35 AM 46.4 °F 40.7 °F 44.6 °F 93% 29.75 in 3.0 mi North 12.7 mph 19.6 mph N/A   Mostly Cloudy
4:55 AM 46.4 °F 41.5 °F 44.6 °F 93% 29.76 in 4.0 mi North 10.4 mph 18.4 mph N/A   Overcast
5:15 AM 46.4 °F 40.7 °F 42.8 °F 87% 29.76 in 7.0 mi North 12.7 mph - N/A   Mostly Cloudy
5:35 AM 44.6 °F 38.4 °F 39.2 °F 81% 29.77 in 10.0 mi NNW 12.7 mph - N/A   Clear
5:55 AM 44.6 °F 40.2 °F 37.4 °F 76% 29.78 in 10.0 mi NNW 8.1 mph - N/A   Clear
6:15 AM 42.8 °F 38.0 °F 37.4 °F 81% 29.78 in 10.0 mi NNW 8.1 mph - N/A   Clear
6:35 AM 42.8 °F 37.0 °F 35.6 °F 76% 29.80 in 10.0 mi NW 10.4 mph - N/A   Clear
6:55 AM 42.8 °F 36.6 °F 35.6 °F 76% 29.80 in 10.0 mi NNW 11.5 mph - N/A   Clear
7:15 AM 42.8 °F 36.2 °F 35.6 °F 76% 29.80 in 10.0 mi NNW 12.7 mph 17.3 mph N/A   Clear
7:35 AM 42.8 °F 36.6 °F 35.6 °F 76% 29.81 in 10.0 mi NNW 11.5 mph - N/A   Clear
7:55 AM 42.8 °F 36.2 °F 33.8 °F 70% 29.81 in 10.0 mi NNW 12.7 mph 18.4 mph N/A   Clear
8:15 AM 42.8 °F 36.2 °F 33.8 °F 70% 29.82 in 10.0 mi NNW 12.7 mph 17.3 mph N/A   Clear
8:35 AM 42.8 °F 36.2 °F 33.8 °F 70% 29.83 in 10.0 mi NNW 12.7 mph - N/A   Clear
8:55 AM 42.8 °F 36.2 °F 33.8 °F 70% 29.84 in 10.0 mi NNW 12.7 mph - N/A   Clear
9:15 AM 42.8 °F 36.6 °F 33.8 °F 70% 29.84 in 10.0 mi NNW 11.5 mph 16.1 mph N/A   Clear
9:35 AM 46.4 °F 40.1 °F 33.8 °F 62% 29.84 in 10.0 mi NNW 15.0 mph 19.6 mph N/A   Clear
9:55 AM 48.2 °F - 32.0 °F 54% 29.85 in 10.0 mi NNW 17.3 mph 24.2 mph N/A   Clear
10:15 AM 48.2 °F - 32.0 °F 54% 29.86 in 10.0 mi NNW 19.6 mph 23.0 mph N/A   Clear
10:35 AM 50.0 °F - 32.0 °F 50% 29.86 in 10.0 mi North 13.8 mph 25.3 mph N/A   Clear
10:55 AM 51.8 °F - 33.8 °F 50% 29.86 in 10.0 mi North 17.3 mph 25.3 mph N/A   Clear
11:15 AM 53.6 °F - 33.8 °F 47% 29.87 in 10.0 mi North 18.4 mph 27.6 mph N/A   Clear
11:35 AM 53.6 °F - 33.8 °F 47% 29.87 in 10.0 mi North 13.8 mph 25.3 mph N/A   Clear
11:55 AM 55.4 °F - 33.8 °F 44% 29.88 in 10.0 mi NNW 18.4 mph 26.5 mph N/A   Clear
12:15 PM 55.4 °F - 33.8 °F 44% 29.88 in 10.0 mi North 12.7 mph 27.6 mph N/A   Clear
12:35 PM 57.2 °F - 33.8 °F 41% 29.88 in 10.0 mi North 20.7 mph 26.5 mph N/A   Clear
12:55 PM 57.2 °F - 33.8 °F 41% 29.88 in 10.0 mi North 16.1 mph 23.0 mph N/A   Clear
1:15 PM 57.2 °F - 33.8 °F 41% 29.89 in 10.0 mi NNW 16.1 mph 26.5 mph N/A   Clear
1:35 PM 59.0 °F - 33.8 °F 39% 29.89 in 10.0 mi North 16.1 mph 21.9 mph N/A   Clear
1:55 PM 60.8 °F - 32.0 °F 34% 29.88 in 10.0 mi NNW 13.8 mph 26.5 mph N/A   Clear
2:15 PM 60.8 °F - 32.0 °F 34% 29.88 in 10.0 mi North 15.0 mph 23.0 mph N/A   Clear
2:35 PM 60.8 °F - 30.2 °F 31% 29.89 in 10.0 mi North 16.1 mph 21.9 mph N/A   Clear
2:55 PM 62.6 °F - 30.2 °F 30% 29.89 in 10.0 mi NNW 18.4 mph 23.0 mph N/A   Clear
3:15 PM 62.6 °F - 30.2 °F 30% 29.89 in 10.0 mi NW 19.6 mph 25.3 mph N/A   Clear
3:35 PM 62.6 °F - 30.2 °F 30% 29.89 in 10.0 mi NW 18.4 mph 24.2 mph N/A   Clear
3:55 PM 62.6 °F - 32.0 °F 32% 29.89 in 10.0 mi NNW 12.7 mph 23.0 mph N/A   Clear
4:15 PM 62.6 °F - 32.0 °F 32% 29.89 in 10.0 mi NW 15.0 mph 21.9 mph N/A   Clear
4:35 PM 62.6 °F - 32.0 °F 32% 29.89 in 10.0 mi NNW 15.0 mph - N/A   Clear
4:55 PM 62.6 °F - 32.0 °F 32% 29.90 in 10.0 mi NNW 13.8 mph 20.7 mph N/A   Clear
5:15 PM 62.6 °F - 32.0 °F 32% 29.90 in 10.0 mi NW 16.1 mph 23.0 mph N/A   Clear
5:35 PM 62.6 °F - 32.0 °F 32% 29.90 in 10.0 mi NW 16.1 mph 19.6 mph N/A   Clear
5:55 PM 60.8 °F - 33.8 °F 36% 29.91 in 10.0 mi NW 12.7 mph - N/A   Clear
6:15 PM 59.0 °F - 33.8 °F 39% 29.91 in 10.0 mi NNW 10.4 mph - N/A   Clear
6:55 PM 53.6 °F - 33.8 °F 47% 29.92 in 10.0 mi NW 5.8 mph - N/A   Clear
7:15 PM 51.8 °F - 32.0 °F 47% 29.93 in 10.0 mi NW 4.6 mph - N/A   Clear
7:35 PM 51.8 °F - 32.0 °F 47% 29.93 in 10.0 mi NW 4.6 mph - N/A   Clear
7:55 PM 48.2 °F - 32.0 °F 54% 29.94 in 10.0 mi NW 4.6 mph - N/A   Clear
8:15 PM 48.2 °F - 32.0 °F 54% 29.94 in 10.0 mi NW 6.9 mph - N/A   Clear
8:35 PM 48.2 °F - 32.0 °F 54% 29.94 in 10.0 mi NW 5.8 mph - N/A   Clear
8:55 PM 46.4 °F 44.3 °F 32.0 °F 57% 29.95 in 10.0 mi NW 4.6 mph - N/A   Clear
9:15 PM 46.4 °F 44.3 °F 32.0 °F 57% 29.95 in 10.0 mi NW 4.6 mph - N/A   Clear
9:35 PM 44.6 °F 41.4 °F 32.0 °F 61% 29.95 in 10.0 mi NW 5.8 mph - N/A   Clear
9:55 PM 46.4 °F 44.3 °F 32.0 °F 57% 29.95 in 10.0 mi NNW 4.6 mph - N/A   Clear
10:15 PM 48.2 °F - 32.0 °F 54% 29.95 in 10.0 mi North 4.6 mph - N/A   Clear
10:35 PM 50.0 °F - 32.0 °F 50% 29.95 in 10.0 mi North 5.8 mph - N/A   Clear
10:55 PM 50.0 °F - 32.0 °F 50% 29.95 in 10.0 mi North 6.9 mph - N/A   Clear
11:15 PM 50.0 °F - 33.8 °F 54% 29.95 in 10.0 mi North 5.8 mph - N/A   Clear
11:35 PM 50.0 °F - 33.8 °F 54% 29.95 in 10.0 mi North 4.6 mph - N/A   Clear
11:55 PM 50.0 °F - 33.8 °F 54% 29.95 in 10.0 mi North 6.9 mph - N/A   Clear